CDT,Max TemperatureF,Mean TemperatureF,Min TemperatureF,Max Dew PointF,MeanDew PointF,Min DewpointF,Max Humidity, Mean Humidity, Min Humidity, Max Sea Level PressureIn, Mean Sea Level PressureIn, Min Sea Level PressureIn, Max VisibilityMiles, Mean VisibilityMiles, Min VisibilityMiles, Max Wind SpeedMPH, Mean Wind SpeedMPH, Max Gust SpeedMPH,PrecipitationIn, CloudCover, Events, WindDirDegrees
2012-10-1,78,65,52,54,51,40,100,68,35,30.05,29.96,29.87,10,10,7,26,12,33,T,2,,345
2012-10-2,75,62,49,51,47,45,84,59,33,30.13,29.98,29.86,10,10,9,14,8,18,0.00,1,,191
2012-10-3,83,71,58,55,49,43,68,51,33,29.86,29.82,29.75,10,10,10,20,13,26,0.00,1,,175
2012-10-4,67,58,49,55,46,40,86,64,42,30.24,30.05,29.83,10,10,9,30,13,46,0.00,2,,41
2012-10-5,72,59,45,52,47,43,93,71,49,30.19,30.07,29.98,10,10,10,24,10,31,0.00,4,,92
2012-10-6,50,45,40,42,31,25,74,62,49,30.29,30.17,30.09,10,10,10,24,14,32,0.00,8,,67
2012-10-7,51,44,37,31,29,26,76,58,39,30.30,30.23,30.15,10,10,10,13,7,16,0.00,6,,101
2012-10-8,70,51,32,47,36,30,92,62,31,30.20,30.07,29.91,10,10,10,22,11,29,0.00,3,,206
2012-10-9,90,69,47,47,39,29,93,52,11,29.94,29.85,29.77,10,10,10,26,12,31,0.00,1,,270
2012-10-10,61,55,48,49,45,40,83,67,51,30.24,30.09,29.94,10,10,10,21,10,28,0.00,5,,84
2012-10-11,80,66,52,63,56,49,100,76,51,30.15,30.05,29.93,10,9,1,22,10,28,0.00,6,,174
2012-10-12,79,72,64,66,63,61,93,78,62,30.20,30.03,29.88,10,10,8,26,13,32,0.25,6,Rain-Thunderstorm,153
2012-10-13,77,65,52,65,53,29,93,56,19,30.06,29.88,29.77,10,9,1,29,17,36,0.03,4,Rain-Thunderstorm,215
2012-10-14,78,64,50,45,41,37,71,48,24,30.23,30.09,29.94,10,10,10,17,9,23,0.00,0,,7
2012-10-15,80,65,49,47,40,34,80,50,19,30.18,30.01,29.84,10,10,10,22,11,26,0.00,4,,217
2012-10-16,88,72,56,50,39,25,77,44,10,29.85,29.67,29.53,10,10,10,24,12,30,0.00,3,,242
2012-10-17,81,66,50,37,33,26,48,34,19,29.83,29.64,29.49,10,10,10,22,10,26,0.00,0,,360
2012-10-18,71,55,38,32,27,20,65,41,17,30.03,29.96,29.83,10,10,10,14,6,18,0.00,1,,121
2012-10-19,78,58,38,43,34,29,70,46,22,30.04,29.94,29.79,10,10,10,17,8,23,0.00,1,,168
2012-10-20,93,69,44,45,33,18,76,42,7,29.80,29.70,29.61,10,10,10,21,12,25,0.00,2,,243
2012-10-21,89,76,63,50,39,30,65,39,13,29.81,29.70,29.63,10,10,10,24,14,37,0.00,1,,235
2012-10-22,86,74,61,64,49,38,87,54,20,29.95,29.78,29.71,10,10,7,25,15,36,T,3,Rain-Thunderstorm,205
2012-10-23,87,73,59,63,54,42,93,58,22,29.98,29.81,29.72,10,9,5,21,13,26,0.00,2,,203
2012-10-24,83,74,64,63,61,58,93,69,45,29.92,29.73,29.62,10,10,9,28,18,35,0.00,5,,191
2012-10-25,68,55,42,63,46,30,100,68,35,30.20,29.91,29.64,10,9,4,28,15,37,0.00,3,,5
2012-10-26,55,43,31,31,22,15,82,53,24,30.38,30.30,30.18,10,10,10,22,11,29,0.00,1,,36
2012-10-27,56,41,26,23,20,17,68,46,24,30.36,30.24,30.11,10,10,10,15,7,21,0.00,1,,144
2012-10-28,62,46,29,26,24,22,69,46,22,30.25,30.18,30.09,10,10,10,18,8,25,0.00,3,,173
2012-10-29,71,54,37,36,31,26,64,45,25,30.19,30.10,30.01,10,10,10,18,10,22,0.00,1,,158
2012-10-30,79,58,36,37,34,31,76,47,17,30.03,29.98,29.91,10,10,10,8,4,10,0.00,0,,168
2012-10-31,81,62,42,38,33,28,67,42,16,30.06,30.00,29.95,10,10,10,14,8,23,0.00,0,,214